Year,Month,Day,Hour,Minute,Value (Times are PST for temperature in C)
2006,07,21,00,00,16.70
2006,07,21,00,01,16.70
2006,07,21,00,02,16.70
2006,07,21,00,03,16.70
2006,07,21,00,04,16.70
2006,07,21,00,05,16.60
2006,07,21,00,06,16.60
2006,07,21,00,07,16.60
2006,07,21,00,08,16.60
2006,07,21,00,09,16.60
2006,07,21,00,10,16.50
2006,07,21,00,11,16.40
2006,07,21,00,12,16.40
2006,07,21,00,13,16.40
2006,07,21,00,14,16.40
2006,07,21,00,15,16.40
2006,07,21,00,16,16.40
2006,07,21,00,17,16.40
2006,07,21,00,18,16.30
2006,07,21,00,19,16.30
2006,07,21,00,20,16.30
2006,07,21,00,21,16.30
2006,07,21,00,22,16.30
2006,07,21,00,23,16.30
2006,07,21,00,24,16.30
2006,07,21,00,25,16.30
2006,07,21,00,26,16.30
2006,07,21,00,27,16.30
2006,07,21,00,28,16.30
2006,07,21,00,29,16.30
2006,07,21,00,30,16.20
2006,07,21,00,31,16.20
2006,07,21,00,32,16.20
2006,07,21,00,33,16.20
2006,07,21,00,34,16.20
2006,07,21,00,35,16.20
2006,07,21,00,36,16.20
2006,07,21,00,37,16.10
2006,07,21,00,38,16.10
2006,07,21,00,39,16.10
2006,07,21,00,40,16.10
2006,07,21,00,41,16.10
2006,07,21,00,42,16.10
2006,07,21,00,43,16.10
2006,07,21,00,44,16.10
2006,07,21,00,45,16.10
2006,07,21,00,46,16.10
2006,07,21,00,47,16.00
2006,07,21,00,48,15.90
2006,07,21,00,49,15.90
2006,07,21,00,50,15.90
2006,07,21,00,51,15.90
2006,07,21,00,52,15.90
2006,07,21,00,53,15.80
2006,07,21,00,54,15.80
2006,07,21,00,55,15.80
2006,07,21,00,56,15.80
2006,07,21,00,57,15.80
2006,07,21,00,58,15.80
2006,07,21,00,59,15.80
2006,07,21,01,00,15.80
2006,07,21,01,01,15.80
2006,07,21,01,02,15.80
2006,07,21,01,03,15.80
2006,07,21,01,04,15.80
2006,07,21,01,05,15.80
2006,07,21,01,06,15.80
2006,07,21,01,07,15.80
2006,07,21,01,08,15.80
2006,07,21,01,09,15.80
2006,07,21,01,10,15.80
2006,07,21,01,11,15.80
2006,07,21,01,12,15.80
2006,07,21,01,13,15.80
2006,07,21,01,14,15.70
2006,07,21,01,15,15.70
2006,07,21,01,16,15.70
2006,07,21,01,17,15.70
2006,07,21,01,18,15.70
2006,07,21,01,19,15.70
2006,07,21,01,20,15.60
2006,07,21,01,21,15.60
2006,07,21,01,22,15.60
2006,07,21,01,23,15.60
2006,07,21,01,24,15.60
2006,07,21,01,25,15.50
2006,07,21,01,26,15.50
2006,07,21,01,27,15.50
2006,07,21,01,28,15.50
2006,07,21,01,29,15.50
2006,07,21,01,30,15.50
2006,07,21,01,31,15.50
2006,07,21,01,32,15.50
2006,07,21,01,33,15.50
2006,07,21,01,34,15.50
2006,07,21,01,35,15.40
2006,07,21,01,36,15.40
2006,07,21,01,37,15.40
2006,07,21,01,38,15.40
2006,07,21,01,39,15.40
2006,07,21,01,40,15.40
2006,07,21,01,41,15.40
2006,07,21,01,42,15.30
2006,07,21,01,43,15.30
2006,07,21,01,44,15.30
2006,07,21,01,45,15.30
2006,07,21,01,46,15.30
2006,07,21,01,47,15.30
2006,07,21,01,48,15.30
2006,07,21,01,49,15.30
2006,07,21,01,50,15.30
2006,07,21,01,51,15.30
2006,07,21,01,52,15.30
2006,07,21,01,53,15.30
2006,07,21,01,54,15.30
2006,07,21,01,55,15.30
2006,07,21,01,56,15.30
2006,07,21,01,57,15.30
2006,07,21,01,58,15.30
2006,07,21,01,59,15.30
2006,07,21,02,00,15.30
2006,07,21,02,01,15.30
2006,07,21,02,02,15.30
2006,07,21,02,03,15.20
2006,07,21,02,04,15.20
2006,07,21,02,05,15.20
2006,07,21,02,06,15.20
2006,07,21,02,07,15.20
2006,07,21,02,08,15.20
2006,07,21,02,09,15.20
2006,07,21,02,10,15.20
2006,07,21,02,11,15.20
2006,07,21,02,12,15.20
2006,07,21,02,13,15.20
2006,07,21,02,14,15.20
2006,07,21,02,15,15.10
2006,07,21,02,16,15.10
2006,07,21,02,17,15.10
2006,07,21,02,18,15.10
2006,07,21,02,19,15.10
2006,07,21,02,20,15.10
2006,07,21,02,21,15.10
2006,07,21,02,22,15.10
2006,07,21,02,23,15.10
2006,07,21,02,24,15.10
2006,07,21,02,25,15.10
2006,07,21,02,26,15.10
2006,07,21,02,27,15.10
2006,07,21,02,28,15.00
2006,07,21,02,29,15.00
2006,07,21,02,30,15.00
2006,07,21,02,31,15.00
2006,07,21,02,32,15.00
2006,07,21,02,33,15.00
2006,07,21,02,34,15.00
2006,07,21,02,35,15.00
2006,07,21,02,36,14.90
2006,07,21,02,37,14.90
2006,07,21,02,38,14.90
2006,07,21,02,39,14.90
2006,07,21,02,40,14.90
2006,07,21,02,41,14.90
2006,07,21,02,42,14.90
2006,07,21,02,43,14.90
2006,07,21,02,44,14.80
2006,07,21,02,45,14.80
2006,07,21,02,46,14.80
2006,07,21,02,47,14.80
2006,07,21,02,48,14.80
2006,07,21,02,49,14.80
2006,07,21,02,50,14.80
2006,07,21,02,51,14.80
2006,07,21,02,52,14.80
2006,07,21,02,53,14.80
2006,07,21,02,54,14.80
2006,07,21,02,55,14.80
2006,07,21,02,56,14.80
2006,07,21,02,57,14.80
2006,07,21,02,58,14.80
2006,07,21,02,59,14.80
2006,07,21,03,00,14.80
2006,07,21,03,01,14.80
2006,07,21,03,02,14.70
2006,07,21,03,03,14.70
2006,07,21,03,04,14.70
2006,07,21,03,05,14.70
2006,07,21,03,06,14.70
2006,07,21,03,07,14.70
2006,07,21,03,08,14.70
2006,07,21,03,09,14.70
2006,07,21,03,10,14.60
2006,07,21,03,11,14.60
2006,07,21,03,12,14.60
2006,07,21,03,13,14.60
2006,07,21,03,14,14.60
2006,07,21,03,15,14.60
2006,07,21,03,16,14.60
2006,07,21,03,17,14.50
2006,07,21,03,18,14.50
2006,07,21,03,19,14.50
2006,07,21,03,20,14.50
2006,07,21,03,21,14.50
2006,07,21,03,22,14.50
2006,07,21,03,23,14.50
2006,07,21,03,24,14.50
2006,07,21,03,25,14.40
2006,07,21,03,26,14.40
2006,07,21,03,27,14.40
2006,07,21,03,28,14.40
2006,07,21,03,29,14.40
2006,07,21,03,30,14.40
2006,07,21,03,31,14.40
2006,07,21,03,32,14.30
2006,07,21,03,33,14.30
2006,07,21,03,34,14.30
2006,07,21,03,35,14.30
2006,07,21,03,36,14.30
2006,07,21,03,37,14.30
2006,07,21,03,38,14.30
2006,07,21,03,39,14.30
2006,07,21,03,40,14.20
2006,07,21,03,41,14.20
2006,07,21,03,42,14.20
2006,07,21,03,43,14.20
2006,07,21,03,44,14.20
2006,07,21,03,45,14.20
2006,07,21,03,46,14.20
2006,07,21,03,47,14.20
2006,07,21,03,48,14.20
2006,07,21,03,49,14.20
2006,07,21,03,50,14.20
2006,07,21,03,51,14.20
2006,07,21,03,52,14.20
2006,07,21,03,53,14.10
2006,07,21,03,54,14.10
2006,07,21,03,55,14.10
2006,07,21,03,56,14.10
2006,07,21,03,57,14.10
2006,07,21,03,58,14.00
2006,07,21,03,59,14.00
2006,07,21,04,00,14.00
2006,07,21,04,01,14.00
2006,07,21,04,02,14.00
2006,07,21,04,03,14.00
2006,07,21,04,04,14.00
2006,07,21,04,05,14.00
2006,07,21,04,06,14.00
2006,07,21,04,07,13.90
2006,07,21,04,08,13.90
2006,07,21,04,09,13.90
2006,07,21,04,10,13.90
2006,07,21,04,11,13.90
2006,07,21,04,12,13.90
2006,07,21,04,13,13.90
2006,07,21,04,14,13.90
2006,07,21,04,15,13.90
2006,07,21,04,16,13.90
2006,07,21,04,17,13.90
2006,07,21,04,18,13.80
2006,07,21,04,19,13.80
2006,07,21,04,20,13.80
2006,07,21,04,21,13.80
2006,07,21,04,22,13.80
2006,07,21,04,23,13.80
2006,07,21,04,24,13.80
2006,07,21,04,25,13.70
2006,07,21,04,26,13.70
2006,07,21,04,27,13.70
2006,07,21,04,28,13.70
2006,07,21,04,29,13.70
2006,07,21,04,30,13.70
2006,07,21,04,31,13.70
2006,07,21,04,32,13.70
2006,07,21,04,33,13.70
2006,07,21,04,34,13.70
2006,07,21,04,35,13.70
2006,07,21,04,36,13.70
2006,07,21,04,37,13.70
2006,07,21,04,38,13.70
2006,07,21,04,39,13.70
2006,07,21,04,40,13.70
2006,07,21,04,41,13.70
2006,07,21,04,42,13.70
2006,07,21,04,43,13.70
2006,07,21,04,44,13.70
2006,07,21,04,45,13.70
2006,07,21,04,46,13.70
2006,07,21,04,47,13.70
2006,07,21,04,48,13.70
2006,07,21,04,49,13.70
2006,07,21,04,50,13.70
2006,07,21,04,51,13.70
2006,07,21,04,52,13.70
2006,07,21,04,53,13.70
2006,07,21,04,54,13.70
2006,07,21,04,55,13.70
2006,07,21,04,56,13.70
2006,07,21,04,57,13.70
2006,07,21,04,58,13.70
2006,07,21,04,59,13.70
2006,07,21,05,00,13.70
2006,07,21,05,01,13.70
2006,07,21,05,02,13.70
2006,07,21,05,03,13.70
2006,07,21,05,04,13.70
2006,07,21,05,05,13.70
2006,07,21,05,06,13.70
2006,07,21,05,07,13.60
2006,07,21,05,08,13.60
2006,07,21,05,09,13.60
2006,07,21,05,10,13.60
2006,07,21,05,11,13.60
2006,07,21,05,12,13.60
2006,07,21,05,13,13.60
2006,07,21,05,14,13.60
2006,07,21,05,15,13.70
2006,07,21,05,16,13.70
2006,07,21,05,17,13.70
2006,07,21,05,18,13.70
2006,07,21,05,19,13.70
2006,07,21,05,20,13.70
2006,07,21,05,21,13.70
2006,07,21,05,22,13.70
2006,07,21,05,23,13.70
2006,07,21,05,24,13.70
2006,07,21,05,25,13.70
2006,07,21,05,26,13.70
2006,07,21,05,27,13.70
2006,07,21,05,28,13.70
2006,07,21,05,29,13.60
2006,07,21,05,30,13.60
2006,07,21,05,31,13.60
2006,07,21,05,32,13.60
2006,07,21,05,33,13.60
2006,07,21,05,34,13.60
2006,07,21,05,35,13.60
2006,07,21,05,36,13.60
2006,07,21,05,37,13.60
2006,07,21,05,38,13.60
2006,07,21,05,39,13.60
2006,07,21,05,40,13.60
2006,07,21,05,41,13.60
2006,07,21,05,42,13.60
2006,07,21,05,43,13.60
2006,07,21,05,44,13.60
2006,07,21,05,45,13.60
2006,07,21,05,46,13.60
2006,07,21,05,47,13.70
2006,07,21,05,48,13.70
2006,07,21,05,49,13.70
2006,07,21,05,50,13.70
2006,07,21,05,51,13.70
2006,07,21,05,52,13.70
2006,07,21,05,53,13.70
2006,07,21,05,54,13.70
2006,07,21,05,55,13.70
2006,07,21,05,56,13.70
2006,07,21,05,57,13.70
2006,07,21,05,58,13.70
2006,07,21,05,59,13.70
2006,07,21,06,00,13.70
2006,07,21,06,01,13.70
2006,07,21,06,02,13.70
2006,07,21,06,03,13.70
2006,07,21,06,04,13.70
2006,07,21,06,05,13.70
2006,07,21,06,06,13.70
2006,07,21,06,07,13.70
2006,07,21,06,08,13.70
2006,07,21,06,09,13.70
2006,07,21,06,10,13.70
2006,07,21,06,11,13.70
2006,07,21,06,12,13.70
2006,07,21,06,13,13.70
2006,07,21,06,14,13.70
2006,07,21,06,15,13.70
2006,07,21,06,16,13.70
2006,07,21,06,17,13.70
2006,07,21,06,18,13.70
2006,07,21,06,19,13.80
2006,07,21,06,20,13.80
2006,07,21,06,21,13.80
2006,07,21,06,22,13.80
2006,07,21,06,23,13.80
2006,07,21,06,24,13.80
2006,07,21,06,25,13.90
2006,07,21,06,26,13.90
2006,07,21,06,27,13.90
2006,07,21,06,28,13.90
2006,07,21,06,29,13.90
2006,07,21,06,30,13.90
2006,07,21,06,31,13.90
2006,07,21,06,32,13.90
2006,07,21,06,33,13.90
2006,07,21,06,34,13.90
2006,07,21,06,35,13.90
2006,07,21,06,36,13.90
2006,07,21,06,37,13.90
2006,07,21,06,38,13.90
2006,07,21,06,39,13.90
2006,07,21,06,40,13.90
2006,07,21,06,41,14.00
2006,07,21,06,42,14.00
2006,07,21,06,43,14.00
2006,07,21,06,44,14.10
2006,07,21,06,45,14.20
2006,07,21,06,46,14.30
2006,07,21,06,47,14.40
2006,07,21,06,48,14.50
2006,07,21,06,49,14.50
2006,07,21,06,50,14.60
2006,07,21,06,51,14.70
2006,07,21,06,52,14.80
2006,07,21,06,53,14.80
2006,07,21,06,54,14.90
2006,07,21,06,55,14.90
2006,07,21,06,56,15.00
2006,07,21,06,57,15.10
2006,07,21,06,58,15.20
2006,07,21,06,59,15.30
2006,07,21,07,00,15.50
2006,07,21,07,01,15.60
2006,07,21,07,02,15.70
2006,07,21,07,03,15.80
2006,07,21,07,04,16.00
2006,07,21,07,05,16.10
2006,07,21,07,06,16.30
2006,07,21,07,07,16.40
2006,07,21,07,08,16.50
2006,07,21,07,09,16.70
2006,07,21,07,10,16.80
2006,07,21,07,11,16.90
2006,07,21,07,12,17.10
2006,07,21,07,13,17.30
2006,07,21,07,14,17.40
2006,07,21,07,15,17.60
2006,07,21,07,16,17.80
2006,07,21,07,17,17.90
2006,07,21,07,18,18.10
2006,07,21,07,19,18.30
2006,07,21,07,20,18.50
2006,07,21,07,21,18.60
2006,07,21,07,22,18.80
2006,07,21,07,23,19.00
2006,07,21,07,24,19.10
2006,07,21,07,25,19.40
2006,07,21,07,26,19.60
2006,07,21,07,27,19.80
2006,07,21,07,28,20.10
2006,07,21,07,29,20.40
2006,07,21,07,30,20.60
2006,07,21,07,31,20.90
2006,07,21,07,32,21.10
2006,07,21,07,33,21.30
2006,07,21,07,34,21.40
2006,07,21,07,35,21.60
2006,07,21,07,36,21.70
2006,07,21,07,37,21.80
2006,07,21,07,38,21.80
2006,07,21,07,39,21.90
2006,07,21,07,40,22.00
2006,07,21,07,41,22.00
2006,07,21,07,42,22.00
2006,07,21,07,43,22.10
2006,07,21,07,44,22.10
2006,07,21,07,45,22.10
2006,07,21,07,46,22.20
2006,07,21,07,47,22.20
2006,07,21,07,48,22.30
2006,07,21,07,49,22.30
2006,07,21,07,50,22.40
2006,07,21,07,51,22.50
2006,07,21,07,52,22.50
2006,07,21,07,53,22.60
2006,07,21,07,54,22.60
2006,07,21,07,55,22.70
2006,07,21,07,56,22.70
2006,07,21,07,57,22.80
2006,07,21,07,58,22.80
2006,07,21,07,59,22.90
2006,07,21,08,00,22.90
2006,07,21,08,01,22.90
2006,07,21,08,02,23.00
2006,07,21,08,03,23.10
2006,07,21,08,04,23.20
2006,07,21,08,05,23.30
2006,07,21,08,06,23.30
2006,07,21,08,07,23.40
2006,07,21,08,08,23.40
2006,07,21,08,09,23.60
2006,07,21,08,10,23.60
2006,07,21,08,11,23.70
2006,07,21,08,12,23.70
2006,07,21,08,13,23.80
2006,07,21,08,14,23.90
2006,07,21,08,15,24.00
2006,07,21,08,16,24.10
2006,07,21,08,17,24.10
2006,07,21,08,18,24.10
2006,07,21,08,19,24.20
2006,07,21,08,20,24.30
2006,07,21,08,21,24.30
2006,07,21,08,22,24.30
2006,07,21,08,23,24.40
2006,07,21,08,24,24.40
2006,07,21,08,25,24.50
2006,07,21,08,26,24.50
2006,07,21,08,27,24.60
2006,07,21,08,28,24.70
2006,07,21,08,29,24.70
2006,07,21,08,30,24.80
2006,07,21,08,31,24.90
2006,07,21,08,32,24.90
2006,07,21,08,33,25.00
2006,07,21,08,34,25.00
2006,07,21,08,35,25.00
2006,07,21,08,36,25.10
2006,07,21,08,37,25.10
2006,07,21,08,38,25.10
2006,07,21,08,39,25.20
2006,07,21,08,40,25.20
2006,07,21,08,41,25.20
2006,07,21,08,42,25.30
2006,07,21,08,43,25.30
2006,07,21,08,44,25.30
2006,07,21,08,45,25.30
2006,07,21,08,46,25.30
2006,07,21,08,47,25.30
2006,07,21,08,48,25.40
2006,07,21,08,49,25.40
2006,07,21,08,50,25.40
2006,07,21,08,51,25.50
2006,07,21,08,52,25.50
2006,07,21,08,53,25.60
2006,07,21,08,54,25.60
2006,07,21,08,55,25.70
2006,07,21,08,56,25.70
2006,07,21,08,57,25.80
2006,07,21,08,58,25.80
2006,07,21,08,59,25.90
2006,07,21,09,00,26.00
2006,07,21,09,01,26.10
2006,07,21,09,02,26.10
2006,07,21,09,03,26.20
2006,07,21,09,04,26.30
2006,07,21,09,05,26.40
2006,07,21,09,06,26.60
2006,07,21,09,07,26.60
2006,07,21,09,08,26.60
2006,07,21,09,09,26.60
2006,07,21,09,10,26.60
2006,07,21,09,11,26.60
2006,07,21,09,12,26.60
2006,07,21,09,13,26.60
2006,07,21,09,14,26.50
2006,07,21,09,15,26.50
2006,07,21,09,16,26.40
2006,07,21,09,17,26.40
2006,07,21,09,18,26.40
2006,07,21,09,19,26.40
2006,07,21,09,20,26.40
2006,07,21,09,21,26.40
2006,07,21,09,22,26.40
2006,07,21,09,23,26.30
2006,07,21,09,24,26.30
2006,07,21,09,25,26.30
2006,07,21,09,26,26.30
2006,07,21,09,27,26.30
2006,07,21,09,28,26.30
2006,07,21,09,29,26.20
2006,07,21,09,30,26.20
2006,07,21,09,31,26.30
2006,07,21,09,32,26.30
2006,07,21,09,33,26.40
2006,07,21,09,34,26.40
2006,07,21,09,35,26.40
2006,07,21,09,36,26.40
2006,07,21,09,37,26.60
2006,07,21,09,38,26.60
2006,07,21,09,39,26.60
2006,07,21,09,40,26.60
2006,07,21,09,41,26.60
2006,07,21,09,42,26.80
2006,07,21,09,43,26.90
2006,07,21,09,44,27.00
2006,07,21,09,45,27.20
2006,07,21,09,46,27.20
2006,07,21,09,47,27.30
2006,07,21,09,48,27.40
2006,07,21,09,49,27.40
2006,07,21,09,50,27.40
2006,07,21,09,51,27.40
2006,07,21,09,52,27.30
2006,07,21,09,53,27.30
2006,07,21,09,54,27.30
2006,07,21,09,55,27.30
2006,07,21,09,56,27.40
2006,07,21,09,57,27.40
2006,07,21,09,58,27.60
2006,07,21,09,59,27.70
2006,07,21,10,00,27.70
2006,07,21,10,01,27.70
2006,07,21,10,02,27.80
2006,07,21,10,03,27.80
2006,07,21,10,04,27.80
2006,07,21,10,05,27.80
2006,07,21,10,06,27.80
2006,07,21,10,07,27.90
2006,07,21,10,08,27.90
2006,07,21,10,09,27.90
2006,07,21,10,10,28.00
2006,07,21,10,11,28.10
2006,07,21,10,12,28.20
2006,07,21,10,13,28.30
2006,07,21,10,14,28.40
2006,07,21,10,15,28.50
2006,07,21,10,16,28.60
2006,07,21,10,17,28.70
2006,07,21,10,18,28.80
2006,07,21,10,19,28.80
2006,07,21,10,20,28.80
2006,07,21,10,21,28.80
2006,07,21,10,22,28.80
2006,07,21,10,23,28.90
2006,07,21,10,24,28.90
2006,07,21,10,25,28.90
2006,07,21,10,26,28.90
2006,07,21,10,27,28.90
2006,07,21,10,28,28.80
2006,07,21,10,29,28.80
2006,07,21,10,30,28.90
2006,07,21,10,31,28.90
2006,07,21,10,32,28.90
2006,07,21,10,33,28.90
2006,07,21,10,34,28.90
2006,07,21,10,35,28.90
2006,07,21,10,36,28.90
2006,07,21,10,37,29.00
2006,07,21,10,38,29.10
2006,07,21,10,39,29.10
2006,07,21,10,40,29.10
2006,07,21,10,41,29.10
2006,07,21,10,42,29.20
2006,07,21,10,43,29.10
2006,07,21,10,44,29.10
2006,07,21,10,45,29.10
2006,07,21,10,46,29.00
2006,07,21,10,47,28.90
2006,07,21,10,48,28.90
2006,07,21,10,49,28.80
2006,07,21,10,50,28.80
2006,07,21,10,51,28.80
2006,07,21,10,52,28.90
2006,07,21,10,53,28.90
2006,07,21,10,54,28.90
2006,07,21,10,55,28.90
2006,07,21,10,56,29.00
2006,07,21,10,57,29.10
2006,07,21,10,58,29.30
2006,07,21,10,59,29.30
2006,07,21,11,00,29.20
2006,07,21,11,01,29.10
2006,07,21,11,02,29.00
2006,07,21,11,03,28.90
2006,07,21,11,04,28.90
2006,07,21,11,05,28.90
2006,07,21,11,06,28.90
2006,07,21,11,07,28.90
2006,07,21,11,08,28.80
2006,07,21,11,09,28.70
2006,07,21,11,10,28.70
2006,07,21,11,11,28.70
2006,07,21,11,12,28.80
2006,07,21,11,13,28.90
2006,07,21,11,14,28.90
2006,07,21,11,15,28.90
2006,07,21,11,16,29.00
2006,07,21,11,17,29.10
2006,07,21,11,18,29.00
2006,07,21,11,19,28.90
2006,07,21,11,20,29.00
2006,07,21,11,21,29.10
2006,07,21,11,22,29.00
2006,07,21,11,23,28.90
2006,07,21,11,24,29.00
2006,07,21,11,25,29.10
2006,07,21,11,26,29.10
2006,07,21,11,27,29.00
2006,07,21,11,28,28.90
2006,07,21,11,29,28.90
2006,07,21,11,30,28.90
2006,07,21,11,31,28.90
2006,07,21,11,32,29.00
2006,07,21,11,33,29.10
2006,07,21,11,34,29.10
2006,07,21,11,35,29.10
2006,07,21,11,36,29.10
2006,07,21,11,37,29.20
2006,07,21,11,38,29.20
2006,07,21,11,39,29.20
2006,07,21,11,40,29.10
2006,07,21,11,41,29.10
2006,07,21,11,42,29.10
2006,07,21,11,43,29.10
2006,07,21,11,44,29.10
2006,07,21,11,45,29.10
2006,07,21,11,46,29.10
2006,07,21,11,47,29.10
2006,07,21,11,48,29.20
2006,07,21,11,49,29.20
2006,07,21,11,50,29.20
2006,07,21,11,51,29.20
2006,07,21,11,52,29.30
2006,07,21,11,53,29.40
2006,07,21,11,54,29.50
2006,07,21,11,55,29.50
2006,07,21,11,56,29.50
2006,07,21,11,57,29.50
2006,07,21,11,58,29.50
2006,07,21,11,59,29.60
2006,07,21,12,00,29.60
2006,07,21,12,01,29.60
2006,07,21,12,02,29.60
2006,07,21,12,03,29.50
2006,07,21,12,04,29.40
2006,07,21,12,05,29.40
2006,07,21,12,06,29.50
2006,07,21,12,07,29.50
2006,07,21,12,08,29.60
2006,07,21,12,09,29.60
2006,07,21,12,10,29.60
2006,07,21,12,11,29.60
2006,07,21,12,12,29.60
2006,07,21,12,13,29.70
2006,07,21,12,14,29.80
2006,07,21,12,15,29.80
2006,07,21,12,16,29.80
2006,07,21,12,17,29.80
2006,07,21,12,18,29.80
2006,07,21,12,19,29.70
2006,07,21,12,20,29.60
2006,07,21,12,21,29.40
2006,07,21,12,22,29.40
2006,07,21,12,23,29.30
2006,07,21,12,24,29.30
2006,07,21,12,25,29.20
2006,07,21,12,26,29.30
2006,07,21,12,27,29.30
2006,07,21,12,28,29.30
2006,07,21,12,29,29.30
2006,07,21,12,30,29.40
2006,07,21,12,31,29.50
2006,07,21,12,32,29.50
2006,07,21,12,33,29.50
2006,07,21,12,34,29.50
2006,07,21,12,35,29.50
2006,07,21,12,36,29.60
2006,07,21,12,37,29.60
2006,07,21,12,38,29.70
2006,07,21,12,39,29.70
2006,07,21,12,40,29.80
2006,07,21,12,41,29.80
2006,07,21,12,42,29.80
2006,07,21,12,43,29.80
2006,07,21,12,44,29.80
2006,07,21,12,45,29.90
2006,07,21,12,46,29.90
2006,07,21,12,47,29.90
2006,07,21,12,48,29.80
2006,07,21,12,49,29.90
2006,07,21,12,50,30.00
2006,07,21,12,51,30.10
2006,07,21,12,52,30.20
2006,07,21,12,53,30.30
2006,07,21,12,54,30.30
2006,07,21,12,55,30.30
2006,07,21,12,56,30.30
2006,07,21,12,57,30.20
2006,07,21,12,58,30.20
2006,07,21,12,59,30.10
2006,07,21,13,00,30.10
2006,07,21,13,01,30.10
2006,07,21,13,02,30.10
2006,07,21,13,03,30.10
2006,07,21,13,04,30.10
2006,07,21,13,05,30.00
2006,07,21,13,06,29.90
2006,07,21,13,07,29.80
2006,07,21,13,08,29.80
2006,07,21,13,09,29.70
2006,07,21,13,10,29.70
2006,07,21,13,11,29.70
2006,07,21,13,12,29.70
2006,07,21,13,13,29.70
2006,07,21,13,14,29.70
2006,07,21,13,15,29.80
2006,07,21,13,16,29.80
2006,07,21,13,17,29.80
2006,07,21,13,18,29.70
2006,07,21,13,19,29.70
2006,07,21,13,20,29.80
2006,07,21,13,21,29.90
2006,07,21,13,22,30.00
2006,07,21,13,23,30.10
2006,07,21,13,24,30.10
2006,07,21,13,25,30.20
2006,07,21,13,26,30.20
2006,07,21,13,27,30.20
2006,07,21,13,28,30.20
2006,07,21,13,29,30.20
2006,07,21,13,30,30.20
2006,07,21,13,31,30.10
2006,07,21,13,32,30.10
2006,07,21,13,33,29.90
2006,07,21,13,34,29.90
2006,07,21,13,35,29.90
2006,07,21,13,36,29.90
2006,07,21,13,37,29.90
2006,07,21,13,38,29.90
2006,07,21,13,39,30.00
2006,07,21,13,40,30.10
2006,07,21,13,41,30.10
2006,07,21,13,42,30.10
2006,07,21,13,43,30.20
2006,07,21,13,44,30.20
2006,07,21,13,45,30.20
2006,07,21,13,46,30.20
2006,07,21,13,47,30.30
2006,07,21,13,48,30.30
2006,07,21,13,49,30.50
2006,07,21,13,50,30.60
2006,07,21,13,51,30.60
2006,07,21,13,52,30.60
2006,07,21,13,53,30.60
2006,07,21,13,54,30.60
2006,07,21,13,55,30.60
2006,07,21,13,56,30.60
2006,07,21,13,57,30.60
2006,07,21,13,58,30.70
2006,07,21,13,59,30.80
2006,07,21,14,00,30.90
2006,07,21,14,01,30.90
2006,07,21,14,02,30.90
2006,07,21,14,03,30.90
2006,07,21,14,04,30.90
2006,07,21,14,05,31.00
2006,07,21,14,06,31.00
2006,07,21,14,07,31.00
2006,07,21,14,08,31.10
2006,07,21,14,09,31.20
2006,07,21,14,10,31.20
2006,07,21,14,11,31.20
2006,07,21,14,12,31.10
2006,07,21,14,13,31.00
2006,07,21,14,14,30.90
2006,07,21,14,15,30.90
2006,07,21,14,16,30.90
2006,07,21,14,17,30.90
2006,07,21,14,18,30.90
2006,07,21,14,19,30.90
2006,07,21,14,20,30.80
2006,07,21,14,21,30.80
2006,07,21,14,22,30.80
2006,07,21,14,23,30.80
2006,07,21,14,24,30.80
2006,07,21,14,25,30.80
2006,07,21,14,26,30.70
2006,07,21,14,27,30.70
2006,07,21,14,28,30.70
2006,07,21,14,29,30.70
2006,07,21,14,30,30.70
2006,07,21,14,31,30.70
2006,07,21,14,32,30.70
2006,07,21,14,33,30.70
2006,07,21,14,34,30.80
2006,07,21,14,35,30.80
2006,07,21,14,36,30.80
2006,07,21,14,37,30.80
2006,07,21,14,38,30.90
2006,07,21,14,39,30.90
2006,07,21,14,40,31.00
2006,07,21,14,41,31.10
2006,07,21,14,42,31.20
2006,07,21,14,43,31.30
2006,07,21,14,44,31.30
2006,07,21,14,45,31.30
2006,07,21,14,46,31.40
2006,07,21,14,47,31.40
2006,07,21,14,48,31.30
2006,07,21,14,49,31.20
2006,07,21,14,50,31.10
2006,07,21,14,51,31.00
2006,07,21,14,52,30.90
2006,07,21,14,53,30.90
2006,07,21,14,54,30.90
2006,07,21,14,55,30.90
2006,07,21,14,56,30.90
2006,07,21,14,57,30.90
2006,07,21,14,58,30.90
2006,07,21,14,59,31.00
2006,07,21,15,00,31.00
2006,07,21,15,01,31.00
2006,07,21,15,02,31.00
2006,07,21,15,03,31.00
2006,07,21,15,04,31.10
2006,07,21,15,05,31.10
2006,07,21,15,06,31.10
2006,07,21,15,07,31.00
2006,07,21,15,08,31.00
2006,07,21,15,09,31.10
2006,07,21,15,10,31.20
2006,07,21,15,11,31.30
2006,07,21,15,12,31.40
2006,07,21,15,13,31.60
2006,07,21,15,14,31.70
2006,07,21,15,15,31.80
2006,07,21,15,16,31.90
2006,07,21,15,17,31.90
2006,07,21,15,18,31.90
2006,07,21,15,19,31.80
2006,07,21,15,20,31.80
2006,07,21,15,21,31.70
2006,07,21,15,22,31.70
2006,07,21,15,23,31.70
2006,07,21,15,24,31.70
2006,07,21,15,25,31.70
2006,07,21,15,26,31.80
2006,07,21,15,27,31.80
2006,07,21,15,28,31.80
2006,07,21,15,29,31.80
2006,07,21,15,30,31.80
2006,07,21,15,31,31.80
2006,07,21,15,32,31.80
2006,07,21,15,33,31.80
2006,07,21,15,34,31.90
2006,07,21,15,35,31.90
2006,07,21,15,36,32.00
2006,07,21,15,37,32.10
2006,07,21,15,38,32.10
2006,07,21,15,39,32.10
2006,07,21,15,40,32.00
2006,07,21,15,41,32.00
2006,07,21,15,42,32.10
2006,07,21,15,43,32.10
2006,07,21,15,44,32.10
2006,07,21,15,45,32.10
2006,07,21,15,46,32.00
2006,07,21,15,47,31.90
2006,07,21,15,48,31.90
2006,07,21,15,49,31.80
2006,07,21,15,50,31.80
2006,07,21,15,51,31.80
2006,07,21,15,52,31.80
2006,07,21,15,53,31.80
2006,07,21,15,54,31.90
2006,07,21,15,55,31.90
2006,07,21,15,56,32.10
2006,07,21,15,57,32.10
2006,07,21,15,58,32.10
2006,07,21,15,59,32.10
2006,07,21,16,00,32.20
2006,07,21,16,01,32.10
2006,07,21,16,02,32.10
2006,07,21,16,03,32.00
2006,07,21,16,04,31.90
2006,07,21,16,05,31.90
2006,07,21,16,06,31.90
2006,07,21,16,07,32.00
2006,07,21,16,08,32.10
2006,07,21,16,09,32.10
2006,07,21,16,10,32.10
2006,07,21,16,11,32.10
2006,07,21,16,12,32.20
2006,07,21,16,13,32.20
2006,07,21,16,14,32.20
2006,07,21,16,15,32.20
2006,07,21,16,16,32.20
2006,07,21,16,17,32.30
2006,07,21,16,18,32.40
2006,07,21,16,19,32.50
2006,07,21,16,20,32.50
2006,07,21,16,21,32.60
2006,07,21,16,22,32.60
2006,07,21,16,23,32.70
2006,07,21,16,24,32.70
2006,07,21,16,25,32.60
2006,07,21,16,26,32.60
2006,07,21,16,27,32.60
2006,07,21,16,28,32.60
2006,07,21,16,29,32.80
2006,07,21,16,30,32.80
2006,07,21,16,31,32.80
2006,07,21,16,32,32.80
2006,07,21,16,33,32.80
2006,07,21,16,34,32.80
2006,07,21,16,35,32.80
2006,07,21,16,36,32.60
2006,07,21,16,37,32.60
2006,07,21,16,38,32.60
2006,07,21,16,39,32.80
2006,07,21,16,40,32.80
2006,07,21,16,41,32.90
2006,07,21,16,42,32.90
2006,07,21,16,43,33.00
2006,07,21,16,44,33.00
2006,07,21,16,45,33.00
2006,07,21,16,46,33.10
2006,07,21,16,47,33.20
2006,07,21,16,48,33.40
2006,07,21,16,49,33.40
2006,07,21,16,50,33.50
2006,07,21,16,51,33.50
2006,07,21,16,52,33.50
2006,07,21,16,53,33.40
2006,07,21,16,54,33.40
2006,07,21,16,55,33.40
2006,07,21,16,56,33.40
2006,07,21,16,57,33.30
2006,07,21,16,58,33.20
2006,07,21,16,59,33.10
2006,07,21,17,00,33.10
2006,07,21,17,01,33.00
2006,07,21,17,02,33.00
2006,07,21,17,03,33.00
2006,07,21,17,04,33.00
2006,07,21,17,05,32.90
2006,07,21,17,06,32.90
2006,07,21,17,07,32.90
2006,07,21,17,08,32.90
2006,07,21,17,09,32.90
2006,07,21,17,10,32.90
2006,07,21,17,11,32.90
2006,07,21,17,12,32.90
2006,07,21,17,13,32.90
2006,07,21,17,14,32.90
2006,07,21,17,15,32.90
2006,07,21,17,16,32.90
2006,07,21,17,17,33.00
2006,07,21,17,18,33.10
2006,07,21,17,19,33.10